Location: ??????
(33.3472°N, 35.4764°E)
Time: 02:47:09
(UTC+00:00)

PSLV R/B - Pass Details

Date: 21 August 2019
Orbit: 594 x 630 km, 97.9° (Epoch: 23 October)

Event Time Altitude Azimuth Distance (km) Brightness Sun altitude
Rises 01:22:17 0° 11° (N) 2,900 7.6 -20.4°
Reaches altitude 10° 01:24:28 10° 11° (N) 1,995 6.7 -20.0°
Maximum altitude 01:28:49 85° 284° (WNW) 633 3.5 -19.3°
Enters shadow 01:30:53 31° 197° (SSW) 1,097 4.4 -18.9°
